Regional Weather Roundup
Issued by NWS Albany, NY

Home | Current Version | Previous Version | Text Only | Print | Product List | Glossary On
Versions: 1 2 3 4 5 6 7 8 9 10 11 12 13 14 15 16 17 18 19 20 21 22 23 24 25 26 27 28 29 30 31 32 33 34 35 36 37 38 39 40 41 42 43 44 45 46 47 48 49 50
699
ASUS41 KALY 270310
RWRALY

NEW YORK STATE HOURLY WEATHER ROUNDUP
NATIONAL WEATHER SERVICE ALBANY NY
1100 PM EDT MON JUN 26 2017

NOTE: "FAIR" INDICATES FEW OR NO CLOUDS BELOW 12,000 FEET WITH NO
SIGNIFICANT WEATHER AND/OR NO OBSTRUCTIONS TO VISIBILITY.

NYZ032-033-038>043-046>054-057>066-NYZ062>081-082-084-270400-
EAST


CITY           SKY/WX    TMP DP  RH WIND       PRES   REMARKS
ALBANY         LGT RAIN  60  57  89 W10       30.03R
GLENS FALLS    LGT RAIN  59  56  89 CALM      29.98S
POUGHKEEPSIE   CLEAR     60  52  74 CALM      29.97R
NEWBURGH       CLEAR     66  52  59 SW5       30.00R
MONTGOMERY     CLEAR     58  53  84 S3        29.98R
WHITE PLAINS   CLEAR     63  58  83 CALM      29.99R
ISLIP          CLEAR     69  63  81 SW9       29.99S
NEW YORK CITY  CLEAR     72  59  63 S8        29.98R
CENTRAL PARK   CLEAR     73  46  38 VRB3      30.01R
$$

NYZ005>009-017-018-044>046-055-056-270400-
CENTRAL


CITY           SKY/WX    TMP DP  RH WIND       PRES   REMARKS
FULTON         PTCLDY    56  53  90 S5        29.97R
SYRACUSE       PTCLDY    58  54  86 CALM      29.97S
ROME           CLOUDY    57  55  93 E3        30.00R
ELMIRA         CLOUDY    57  56  96 CALM      30.00F
BINGHAMTON     LGT RAIN  54  52  93 CALM      30.00F
MONTICELLO     PTCLDY    61  48  63 W9        30.03R
$$

NYZ026>034-041>043-087-270400-
NORTH


CITY           SKY/WX    TMP DP  RH WIND       PRES   REMARKS
WATERTOWN      CLEAR     53  53 100 CALM      29.95S
FORT DRUM      NOT AVBL
OGDENSBURG     FAIR      54  53  95 SE3       29.93S
MASSENA        HVY RAIN  56  55  97 SW5       29.95R FOG
SARANAC LAKE   TSTM      52  50  93 CALM      29.98R FOG
PLATTSBURGH    CLEAR     56  53  90 S3        29.94R
$$

NYZ001>004-010>016-019>021-085-270400-
WEST


CITY           SKY/WX    TMP DP  RH WIND       PRES   REMARKS
NIAGARA FALLS  CLEAR     56  50  80 CALM      29.95S
BUFFALO        PTCLDY    58  45  62 SW3       29.96S
DUNKIRK        PTCLDY    58  49  72 CALM      29.98R
JAMESTOWN      CLEAR     54  48  82 SW9       30.00S
WELLSVILLE     CLEAR     54  49  83 SW7       30.03S
ROCHESTER      MOCLDY    59  50  72 S5        29.96F
PENN YAN       CLEAR     56  50  80 S8        29.99F
$$

             KEY
       WCI = WIND CHILL INDEX
       VSB = VISIBILITY
       HX  = HEAT INDEX
$$




USA.gov is the U.S. government's official web portal to all federal, state and local government web resources and services.